RH
69 63 60 80 75 74 76 71 71 73 77 86 93 90 90 86 72 75 77 80 84 85 82 88 84 83 88 90 92 94 95 96 95 90 89 88 95 96 94 89 87 94 97
73 76 53 72 80 73 74 75 71 72 75 75 77 88 81 94 81 83 85 80 85 86 86 86 86 86 86 96 86 83 83 83 83 81 84 83 89 94 84 87 92 98 99
68 77 66 59 81 75 72 75 74 71 72 72 73 76 82 95 92 88 88 90 91 92 90 87 83 84 89 95 83 79 74 77 80 81 82 88 91 97 87 90 95 93 94
63 70 72 66 74 81 74 73 76 73 73 73 74 75 84 91 97 93 90 87 93 92 82 75 86 80 76 88 91 80 75 76 79 82 78 82 92 96 90 86 89 91 93
65 69 67 76 73 82 80 74 73 72 71 73 74 76 82 86 96 94 91 86 80 86 82 74 82 75 76 77 88 79 72 75 78 72 76 78 81 87 89 93 94 91 90
68 74 62 71 72 78 82 79 74 70 73 74 76 80 82 84 86 96 81 74 72 67 70 74 73 71 75 76 83 73 70 75 83 74 63 80 77 92 93 92 91 88 87
76 81 80 72 71 74 78 80 79 72 75 81 85 80 83 78 78 84 81 75 69 65 58 76 74 72 76 78 72 68 59 81 79 74 71 69 82 89 86 86 85 84 89
85 89 88 80 71 76 78 79 78 76 71 77 77 84 84 83 81 83 89 79 75 65 58 73 89 75 76 76 66 60 64 81 76 80 79 76 84 87 91 96 96 95 94
54 80 87 86 87 78 77 76 76 80 78 75 76 82 85 85 84 84 86 85 85 81 72 67 87 81 76 72 65 60 71 81 77 79 80 80 91 93 89 86 86 80 79
41 47 47 70 88 87 87 79 70 73 74 75 76 78 74 82 84 88 88 86 84 80 83 80 80 89 80 71 72 65 78 82 82 82 79 82 91 86 83 81 82 96 96
37 37 44 49 50 76 82 89 84 80 79 78 77 77 81 81 85 86 81 82 79 73 87 85 86 87 83 82 76 70 71 74 70 83 79 80 88 83 85 92 92 91 93
39 43 44 41 48 59 57 65 85 91 90 84 79 80 84 85 85 87 81 81 76 68 83 86 86 87 83 78 78 76 75 67 54 77 82 80 88 85 91 92 86 84 84
47 52 53 51 49 43 50 56 60 64 85 82 89 89 84 84 89 90 81 78 76 73 79 84 85 84 78 83 72 84 76 59 52 67 77 80 89 94 93 91 88 89 86
43 44 46 45 45 44 45 47 53 60 63 73 86 83 87 86 90 85 77 73 70 75 78 72 84 79 72 74 69 86 73 54 67 73 82 80 90 97 92 89 87 87 85
40 42 44 45 46 47 45 48 44 48 56 70 75 85 90 90 92 87 78 72 69 66 71 67 78 75 70 77 78 77 69 69 73 78 84 86 92 96 91 88 86 87 86
41 43 46 47 48 50 50 50 50 48 48 60 69 78 90 98 100 95 87 70 66 64 61 68 80 79 72 73 78 70 72 70 74 79 86 88 97 92 91 88 90 86 85
44 46 50 50 51 53 56 56 56 56 53 51 60 69 81 98 100 97 91 92 77 70 66 76 80 72 75 80 78 72 80 79 76 82 89 90 86 87 90 92 88 87 88
46 49 50 53 57 60 62 64 65 65 65 61 55 67 76 84 98 100 89 93 93 88 82 86 73 72 70 78 78 74 77 87 81 86 84 85 91 93 91 92 91 90 84
46 47 49 54 58 62 66 69 69 69 68 70 65 66 70 75 88 98 99 97 100 95 83 87 80 78 84 85 79 77 80 90 93 92 89 86 84 90 91 90 92 88 84
42 47 52 56 59 64 69 72 74 70 75 72 72 68 84 76 77 86 99 100 100 100 94 89 87 91 85 86 85 85 87 92 97 95 90 89 83 89 92 93 91 86 79
45 51 56 57 62 65 69 72 74 82 83 78 81 85 71 74 78 87 91 98 99 98 97 90 86 96 99 92 91 99 94 91 98 96 92 91 95 95 97 94 88 84 82
48 56 59 61 62 64 64 66 73 78 77 84 83 84 84 78 74 71 80 95 98 98 100 93 98 99 100 95 97 99 99 98 90 88 93 94 99 96 94 92 87 83 80
50 63 65 64 67 68 67 69 69 70 75 82 79 80 79 81 83 82 81 90 100 100 97 98 100 96 97 100 95 91 99 97 98 96 92 92 91 94 91 86 84 78 76
56 64 68 68 68 68 65 66 68 73 77 76 76 82 81 72 75 88 80 85 94 99 98 99 96 92 94 99 100 96 88 84 96 99 97 94 93 93 88 83 82 80 78
64 67 70 69 66 66 69 71 72 72 76 80 80 73 73 76 78 88 98 86 91 100 99 100 100 100 100 98 97 99 96 88 82 90 99 99 96 96 94 89 86 82 77
65 66 65 67 70 72 74 76 78 80 82 83 81 80 82 71 76 72 73 83 92 95 97 100 95 100 100 96 94 90 88 86 91 85 91 94 93 95 94 94 89 83 77
Wind_Speed
8 4 6 6 6 8 8 9 8 8 10 11 12 12 12 12 12 11 12 12 11 10 10 11 11 11 13 14 14 15 17 17 18 18 18 18 17 17 16 16 18 19 20
10 3 6 6 6 7 7 7 8 8 10 11 11 12 12 11 12 11 11 11 11 8 8 9 9 9 13 14 13 14 15 18 18 18 19 17 18 18 17 18 21 21 21
6 2 6 6 7 7 7 6 8 8 9 9 9 9 10 11 11 11 10 9 9 9 8 7 9 12 14 14 15 16 17 21 20 18 18 19 20 19 18 20 20 20 19
5 1 10 7 7 7 7 7 7 7 8 9 9 8 10 11 11 10 10 10 9 9 8 7 13 13 14 14 15 17 19 20 18 18 17 15 15 16 14 15 16 16 17
7 1 9 5 7 7 6 7 7 6 7 8 9 9 9 9 11 11 11 11 10 9 10 9 12 13 14 13 15 18 18 19 16 13 16 13 11 11 11 13 14 14 14
2 6 8 7 6 6 6 7 7 7 6 8 9 9 10 10 10 11 13 12 11 10 9 9 9 10 13 13 14 18 17 14 14 15 11 13 8 10 11 12 13 13 13
4 11 7 4 5 5 6 7 7 7 7 9 9 9 9 10 11 13 12 13 11 10 10 11 10 10 13 13 13 17 15 9 12 17 11 9 11 10 12 11 11 11 14
6 5 6 1 4 4 5 7 7 7 7 8 8 9 11 11 12 14 16 13 10 9 10 12 11 12 13 12 13 16 12 13 14 16 14 13 13 12 15 18 18 18 18
16 9 6 4 2 5 8 8 8 8 8 8 9 10 11 12 14 18 18 13 10 8 9 12 12 12 13 12 13 15 12 11 11 13 16 14 14 17 17 15 14 11 11
14 17 16 10 4 5 9 10 10 9 10 11 10 10 10 12 16 19 15 13 11 8 10 11 13 12 13 13 15 15 11 12 12 13 14 16 18 17 15 14 13 16 18
14 13 13 15 13 9 3 2 6 8 10 11 11 12 12 14 16 16 13 11 9 7 11 11 13 11 13 13 14 14 13 12 12 13 13 15 18 17 17 18 18 16 14
12 14 14 13 13 14 13 9 6 7 9 11 13 15 16 18 17 14 14 12 9 6 11 13 14 12 14 13 13 14 13 10 7 5 10 16 19 17 19 18 17 14 12
12 13 15 15 14 13 12 13 14 9 9 11 12 15 21 17 17 19 16 15 11 9 12 14 14 13 15 12 13 18 13 10 9 8 11 16 19 19 19 18 18 17 15
14 14 15 16 17 16 13 10 10 13 13 10 10 14 17 18 19 20 18 13 10 12 11 14 13 13 13 17 14 18 12 11 8 11 19 16 19 20 19 18 18 19 16
12 12 13 14 17 17 16 15 13 11 12 12 11 11 17 15 16 16 13 16 14 12 14 15 15 12 12 16 17 19 15 8 10 17 20 21 18 20 19 17 18 18 17
10 12 12 14 15 16 16 16 16 13 11 10 13 10 10 17 15 18 11 17 17 15 6 13 16 15 9 15 14 17 5 11 13 16 20 22 21 20 19 17 17 17 16
9 9 10 11 13 15 16 17 17 15 13 11 11 14 10 8 13 16 18 19 19 21 16 12 19 19 13 15 16 14 5 11 12 16 24 23 19 18 20 19 19 18 19
8 10 12 14 15 15 16 16 16 16 15 14 10 12 8 10 11 19 26 21 18 20 25 23 21 21 20 21 18 15 8 12 15 21 24 20 19 19 18 19 20 20 20
7 10 12 14 16 18 18 16 15 15 15 14 12 12 15 9 11 15 25 28 23 26 30 28 23 25 20 20 21 17 13 16 17 23 22 21 20 19 19 19 20 20 17
8 9 11 14 15 17 16 17 16 12 13 12 14 14 8 9 12 13 19 24 24 25 30 28 26 20 22 23 21 18 16 17 19 20 20 20 18 21 22 23 22 20 17
8 10 12 14 15 17 18 18 19 17 17 14 13 12 15 9 13 13 15 19 23 28 28 29 22 21 22 25 24 14 13 17 16 17 19 21 24 23 26 25 24 21 18
10 11 12 13 15 16 16 19 17 17 14 17 18 16 15 13 12 16 15 18 21 26 31 28 26 22 13 26 7 6 2 4 11 20 21 24 24 26 25 28 26 22 20
12 11 12 13 14 16 17 19 20 18 15 14 14 14 12 14 13 17 16 19 20 24 27 29 31 32 19 27 19 11 1 3 4 7 16 18 24 27 27 30 27 23 19
12 13 12 14 15 16 18 18 19 19 21 17 17 16 17 14 14 13 15 18 19 22 24 28 34 32 28 24 22 12 7 8 3 2 7 11 18 21 24 27 26 23 20
18 16 16 16 17 18 19 19 20 20 20 22 20 18 16 15 15 14 14 16 19 21 25 27 28 33 26 23 25 20 9 11 8 4 3 6 13 21 22 25 23 22 19
17 17 19 20 20 20 21 21 21 21 21 22 21 20 20 16 16 17 21 19 20 20 22 25 26 31 30 29 32 27 23 11 9 6 2 5 10 15 20 19 21 21 20
Wind_Direction
19 131 139 133 128 109 103 135 141 147 151 148 146 147 140 134 126 118 115 109 106 113 115 120 120 117 111 109 112 115 114 112 110 111 108 104 98 93 95 99 97 95 93
341 256 159 147 147 131 117 134 151 154 156 158 159 159 149 142 133 127 122 116 114 122 132 136 138 131 126 120 118 116 115 113 108 108 103 101 102 96 99 100 97 91 89
325 135 172 175 161 153 144 137 146 155 162 165 168 169 158 152 144 138 129 122 124 115 118 133 157 139 121 119 118 117 116 111 105 101 100 94 92 90 94 95 91 89 87
327 236 192 183 172 162 163 157 155 162 170 176 179 181 177 164 156 150 142 133 130 122 122 109 137 131 129 124 124 124 119 111 100 96 97 93 86 86 86 87 87 91 89
314 344 174 180 189 174 178 180 183 178 172 176 180 185 192 178 167 166 160 156 151 144 128 117 132 134 132 130 133 130 123 119 114 118 112 104 95 92 90 89 91 93 91
278 197 195 184 186 189 194 186 192 193 192 186 192 206 198 190 187 178 178 171 168 158 151 142 144 141 143 143 142 139 134 131 121 124 121 99 98 95 96 94 96 96 96
38 80 131 169 182 195 200 203 197 204 208 205 209 219 211 200 197 197 188 175 169 168 159 161 171 163 158 152 151 148 143 114 150 123 123 133 111 106 105 103 105 108 106
44 71 76 77 203 205 207 213 212 211 216 222 221 219 215 212 203 193 188 176 174 173 179 173 174 165 165 163 157 151 148 117 131 130 130 116 110 116 113 103 95 95 96
35 36 33 89 294 259 241 236 229 223 224 233 236 231 227 216 202 191 186 186 182 187 187 184 178 178 177 174 167 158 158 136 137 137 140 125 121 113 110 101 93 99 106
40 33 32 40 9 237 262 256 241 245 238 239 244 241 232 217 200 183 183 181 188 196 194 192 186 186 179 173 163 165 152 137 137 150 141 139 130 126 118 116 120 102 100
41 34 37 28 19 20 48 287 249 256 248 247 241 238 225 205 188 184 183 192 195 206 197 194 188 179 172 173 173 172 173 160 140 145 158 150 139 132 126 126 116 106 100
48 41 39 35 33 25 20 10 284 261 269 260 242 229 215 197 198 193 189 202 202 211 204 192 193 183 175 176 174 174 169 179 154 145 173 161 144 138 133 131 124 122 122
65 50 43 42 37 33 30 12 1 333 281 264 240 230 212 202 200 192 194 192 205 204 188 192 193 186 179 184 186 173 181 163 194 182 185 166 149 149 139 135 128 125 120
65 51 39 36 31 30 27 13 1 355 350 310 283 238 221 209 196 196 192 188 171 179 180 194 195 191 194 196 189 181 189 188 210 187 167 167 160 150 140 136 132 129 125
74 55 39 27 23 15 12 6 360 349 343 335 330 272 232 244 205 196 193 171 171 175 181 176 186 195 200 185 180 189 191 202 175 172 162 166 166 146 141 142 139 135 130
65 46 29 19 12 3 359 349 346 341 332 320 317 311 269 249 237 194 200 169 162 164 186 195 189 202 169 191 191 175 187 177 175 163 164 169 155 150 149 147 145 136 132
55 32 20 9 359 356 347 341 336 334 322 307 303 291 285 272 243 198 185 191 163 162 168 203 192 194 162 160 160 185 156 170 167 167 164 160 160 165 158 158 149 144 135
39 21 5 358 354 353 349 341 337 328 322 310 289 292 273 280 250 223 208 207 204 207 180 187 193 194 184 167 173 186 164 164 160 166 166 166 164 168 166 164 154 148 141
44 18 7 1 357 350 352 351 344 336 325 320 303 298 276 257 256 243 226 226 220 199 197 197 199 200 185 172 173 179 166 152 156 176 175 174 171 178 175 167 158 150 143
46 27 11 359 353 349 349 349 349 334 344 339 324 287 302 286 250 250 233 228 217 203 199 190 188 191 190 184 168 165 151 159 165 174 181 178 181 183 179 166 159 158 151
38 33 14 4 357 352 348 346 341 340 329 313 315 308 277 277 250 243 243 234 224 208 203 196 185 182 174 181 158 141 134 145 165 184 187 181 186 182 174 169 169 168 163
45 29 15 6 358 352 346 337 332 324 321 311 323 301 306 266 267 254 244 244 228 218 214 208 186 174 176 176 162 132 140 127 168 161 176 180 175 174 173 174 180 186 187
35 27 13 5 353 348 339 336 333 327 318 323 312 313 301 297 284 245 251 247 235 221 218 209 198 191 180 190 192 152 175 190 133 193 169 179 176 174 177 177 182 189 196
39 22 8 356 351 346 340 333 330 323 316 307 302 301 308 274 275 268 253 251 239 227 226 219 214 209 200 188 197 188 172 141 152 170 209 214 183 178 174 173 180 188 197
27 17 2 353 351 346 342 337 327 319 315 311 302 291 289 282 273 265 245 242 239 225 223 217 205 206 203 196 197 198 170 175 165 136 161 195 198 197 184 184 186 193 204
14 2 360 357 354 350 346 342 334 326 321 314 308 299 288 276 274 263 264 252 239 229 228 225 223 222 217 215 215 211 209 192 185 158 130 154 184 209 204 200 202 206 212